Lid_Strength_Index
9 12 14 14 13 13 14 16 16 15 13 13 14 14 13 11 12 13 12 11 11 10 8 8 7 7 8 2 2 2 2 2 2 2 3 3 2 2 2 2 1 1 1 1
11 14 10 10 11 13 14 15 16 14 12 14 14 14 13 12 12 12 11 11 11 11 9 7 6 7 7 3 2 2 2 3 2 2 2 3 3 3 2 2 2 1 1 1
12 11 8 9 11 13 13 14 15 15 12 12 14 14 13 11 11 11 11 10 11 10 10 9 8 8 7 3 3 2 2 2 2 2 3 3 3 3 3 3 3 2 1 1
11 8 9 10 11 10 14 11 12 13 14 17 13 19 15 13 12 11 10 11 11 11 10 9 8 8 7 3 2 2 2 2 2 2 3 3 4 4 3 4 3 3 2 2
12 10 11 11 11 9 12 9 11 12 13 15 14 17 16 13 13 12 11 11 11 11 9 8 8 7 4 3 3 3 3 2 3 2 2 2 4 4 4 3 3 3 3 2
10 8 9 9 8 8 8 10 11 12 13 18 15 16 18 15 13 12 11 10 10 6 6 5 4 3 3 3 2 3 3 4 3 3 3 4 4 4 4 4 4 4 3 2
11 11 9 8 10 9 9 13 19 19 18 19 14 15 14 12 11 11 10 8 7 6 6 6 5 4 4 3 3 2 3 3 3 4 4 4 4 4 4 4 3 4 3 4
16 18 11 9 10 12 11 13 19 22 21 18 13 16 14 10 8 7 7 7 7 7 6 6 5 4 4 3 3 3 3 3 3 4 4 4 3 3 3 3 3 3 3 2
16 16 9 8 8 9 13 15 12 15 15 18 16 14 11 10 9 8 9 8 8 7 8 7 6 5 4 4 3 3 3 4 3 4 4 3 3 3 3 3 3 3 2 2
12 17 11 9 8 9 11 10 17 16 21 23 17 16 16 13 12 10 10 9 8 8 7 7 7 6 6 5 5 5 4 4 3 3 3 3 3 2 2 3 3 3 3 2
11 14 14 11 12 13 13 13 13 14 16 20 20 18 13 13 11 11 11 9 9 8 8 7 7 6 6 6 6 6 6 5 5 5 4 4 3 3 2 2 2 2 2 2
10 13 17 14 11 9 10 13 13 17 18 16 17 18 10 10 10 9 9 8 9 9 9 8 8 7 6 5 6 6 6 6 6 5 6 6 6 5 5 6 5 5 5 4
11 14 18 17 13 11 13 12 11 12 13 17 19 18 10 9 9 8 9 7 8 8 8 8 8 9 8 8 8 8 8 8 8 8 8 8 8 7 7 7 6 6 5 5
9 13 15 18 16 13 14 13 11 12 17 16 16 16 13 11 10 9 8 8 8 8 8 8 9 8 8 8 7 8 8 7 7 8 8 7 6 6 6 6 5 5 5 5
10 15 14 13 13 12 12 12 12 13 13 15 14 15 12 11 10 9 8 7 8 8 8 8 9 9 8 8 8 8 8 8 8 7 7 7 7 6 6 6 6 6 5 5
10 15 13 15 12 13 14 12 11 11 12 12 13 14 9 8 8 8 8 8 8 9 8 8 8 8 8 8 7 7 7 8 8 8 8 7 7 7 7 7 7 7 7 7
12 13 15 18 13 14 17 14 13 12 11 12 15 12 9 10 9 9 8 7 8 8 8 8 8 8 8 8 7 7 7 7 8 8 8 7 7 7 7 7 7 8 8 8
12 13 14 17 15 21 13 10 10 12 11 10 11 10 9 9 8 7 6 7 7 7 7 7 8 8 8 7 7 8 8 8 8 8 8 7 7 7 8 8 9 9 9 9
10 12 16 18 18 15 13 11 12 13 13 9 10 9 9 8 8 9 6 5 5 6 7 8 8 8 8 8 9 9 9 9 9 9 8 8 8 9 10 10 10 10 10 10
10 11 14 16 19 21 14 10 8 8 16 9 8 9 9 8 12 11 8 7 7 8 8 9 10 10 10 11 10 10 10 9 10 9 10 10 10 10 10 11 11 10 11 11
14 14 16 17 18 15 10 9 7 16 15 8 8 8 8 9 9 9 9 10 10 11 11 11 11 12 11 9 9 10 10 11 10 10 10 11 11 11 11 11 11 12 12 12
15 16 16 16 18 19 9 9 12 11 9 9 9 8 9 9 10 11 12 12 11 12 11 11 11 11 11 10 10 12 12 11 11 11 12 12 12 12 11 12 13 13 13 12
15 13 15 14 14 10 10 10 9 8 9 9 10 9 10 11 12 12 12 12 12 11 12 11 12 12 12 12 12 13 13 12 13 13 13 13 13 13 13 13 13 13 12 11
11 9 12 12 12 13 11 11 11 11 9 8 8 9 10 12 11 11 12 12 13 12 12 12 12 13 13 13 13 13 13 13 13 14 14 14 13 13 13 14 13 12 12 12
11 10 11 12 10 10 11 11 11 11 11 11 11 12 12 12 12 12 13 13 13 14 13 13 14 14 14 13 13 13 13 13 14 14 14 13 13 13 13 13 13 12 12 12
10 10 12 13 8 10 12 11 10 11 11 11 11 12 12 12 13 14 14 14 14 15 14 15 15 14 14 15 15 14 14 14 14 14 13 13 13 13 13 13 13 12 12 12